CW4185 Weather Reports


time (UTC)temp
C
wind
direction
speed
KPH
gust
KPH
rain 1hr
cm
rain 24hr
cm
rain mn
cm
humidity
%
barometer
mb
20260902021646 27 171 3.2 4.8 0.00 0.00 0.74 87 1015.9
20260902021146 27 160 0.0 4.8 0.00 0.00 0.74 86 1015.9
20260902020646 27 153 1.6 4.8 0.00 0.00 0.74 86 1015.6
20260902020146 27 141 3.2 4.8 0.00 0.00 0.74 86 1015.9
20260902015646 28 246 0.0 3.2 0.00 0.00 0.74 85 1015.9
20260902015147 28 118 1.6 8.0 0.00 0.00 0.74 85 1015.6
20260902014647 28 64 3.2 4.8 0.00 0.00 0.74 85 1015.6
20260902014146 28 107 0.0 3.2 0.00 0.00 0.74 85 1015.6
20260902013646 27 59 0.0 4.8 0.00 0.00 0.74 85 1015.6
20260902013146 27 169 0.0 4.8 0.00 0.00 0.74 85 1015.6
20260902012647 27 153 4.8 4.8 0.00 0.00 0.74 85 1015.2
20260902012146 27 167 4.8 4.8 0.00 0.00 0.74 84 1015.2
20260902011647 27 147 4.8 4.8 0.00 0.00 0.74 84 1015.2
20260902011147 27 167 3.2 4.8 0.00 0.00 0.74 84 1015.2
20260902010646 27 149 3.2 3.2 0.00 0.00 0.74 84 1015.2
20260902010146 27 136 3.2 3.2 0.00 0.00 0.74 84 1015.2
20260902005646 28 89 0.0 1.6 0.00 0.00 0.74 83 1015.2
20260902005148 28 191 0.0 3.2 0.00 0.00 0.74 83 1014.9
20260902004647 28 172 3.2 3.2 0.00 0.00 0.74 83 1015.2
20260902004146 28 189 3.2 3.2 0.00 0.00 0.74 83 1015.2
20260902003646 28 158 0.0 1.6 0.00 0.00 0.74 83 1015.2
20260902003147 28 159 3.2 4.8 0.00 0.00 0.74 82 1014.9
20260902002646 28 170 3.2 4.8 0.00 0.00 0.74 82 1015.2
20260902002147 28 165 4.8 4.8 0.00 0.00 0.74 81 1014.9
20260902001647 28 141 0.0 4.8 0.00 0.00 0.74 80 1015.2
20260902001147 28 154 0.0 3.2 0.00 0.00 0.74 80 1014.9
20260902000646 28 157 3.2 4.8 0.00 0.00 0.74 80 1014.9
20260902000146 28 179 3.2 4.8 0.00 0.00 0.74 79 1014.9
20260901235647 28 139 3.2 6.4 0.00 0.00 0.74 79 1014.9
20260901235146 28 123 1.6 3.2 0.00 0.00 0.74 80 1014.9
20260901234646 28 217 0.0 3.2 0.00 0.00 0.74 80 1014.9
20260901234146 28 177 3.2 3.2 0.00 0.00 0.74 79 1014.9
20260901233646 28 174 3.2 4.8 0.00 0.00 0.74 78 1014.9
20260901233147 28 173 3.2 4.8 0.00 0.00 0.74 79 1014.9
20260901232646 28 164 6.4 8.0 0.00 0.00 0.74 79 1014.9
20260901232146 28 140 4.8 8.0 0.00 0.00 0.74 78 1014.6
20260901231646 28 153 4.8 6.4 0.00 0.00 0.74 78 1014.9
20260901231147 28 165 4.8 6.4 0.00 0.00 0.74 80 1015.2
20260901230650 28 177 4.8 9.7 0.00 0.00 0.74 80 1015.2
20260901230146 28 165 4.8 8.0 0.00 0.00 0.74 80 1014.9
20260901225646 28 175 6.4 14.5 0.00 0.00 0.74 80 1015.2
20260901225146 28 171 4.8 6.4 0.00 0.00 0.74 85 1015.2
20260901224646 28 164 8.0 8.0 0.00 0.00 0.74 84 1015.2
20260901224150 28 177 8.0 11.3 0.00 0.00 0.74 85 1015.2
20260901223647 28 183 8.0 8.0 0.00 0.00 0.74 84 1015.2
20260901223146 28 184 6.4 9.7 0.00 0.00 0.74 84 1015.2
20260901222646 28 188 8.0 12.9 0.00 0.00 0.74 83 1015.2
20260901222147 28 168 8.0 9.7 0.00 0.00 0.74 81 1015.2
20260901221646 28 174 6.4 9.7 0.00 0.00 0.74 82 1015.2
20260901221146 28 179 8.0 8.0 0.00 0.00 0.74 81 1015.2
20260901220648 28 170 6.4 6.4 0.00 0.00 0.74 79 1014.9
20260901220146 28 76 1.6 11.3 0.00 0.00 0.74 79 1015.2
20260901215646 28 175 8.0 8.0 0.00 0.00 0.74 80 1014.9
20260901215147 28 187 4.8 6.4 0.00 0.00 0.74 81 1014.9
20260901214647 28 168 4.8 6.4 0.00 0.00 0.74 80 1015.2
20260901214147 28 175 9.7 9.7 0.00 0.00 0.74 79 1015.2
20260901213647 28 178 4.8 6.4 0.00 0.00 0.74 80 1015.2
20260901213146 28 178 6.4 8.0 0.00 0.00 0.74 79 1015.2
20260901212647 28 177 4.8 11.3 0.00 0.00 0.74 80 1015.2
20260901212146 28 187 3.2 4.8 0.00 0.00 0.74 78 1015.2
20260901211646 28 330 0.0 4.8 0.00 0.00 0.74 77 1015.2
20260901211147 28 215 1.6 4.8 0.00 0.00 0.74 78 1015.2
20260901210647 28 209 3.2 6.4 0.00 0.00 0.74 79 1015.2
20260901210152 28 164 3.2 6.4 0.00 0.00 0.74 79 1015.2
20260901205647 28 166 4.8 4.8 0.00 0.00 0.74 79 1015.2
20260901205146 28 58 4.8 4.8 0.00 0.00 0.74 79 1015.2
20260901204647 28 307 3.2 3.2 0.00 0.00 0.74 80 1015.2
20260901204146 28 266 1.6 3.2 0.00 0.00 0.74 82 1015.6
20260901203647 27 213 1.6 3.2 0.00 0.00 0.74 83 1015.6
20260901203147 27 181 4.8 4.8 0.00 0.00 0.74 83 1015.9
20260901202647 27 224 0.0 4.8 0.00 0.00 0.74 83 1015.9
20260901202146 28 197 3.2 4.8 0.00 0.00 0.74 82 1015.9
20260901201647 27 217 1.6 4.8 0.00 0.00 0.74 83 1015.9
20260901201147 27 226 0.0 3.2 0.00 0.00 0.74 85 1016.3
20260901200646 27 259 1.6 4.8 0.00 0.00 0.74 85 1016.3
20260901200147 27 20 4.8 6.4 0.00 0.00 0.74 85 1016.6
20260901195646 27 288 4.8 6.4 0.00 0.00 0.74 86 1016.3
20260901195146 27 324 4.8 6.4 0.00 0.00 0.74 87 1016.9
20260901194648 27 332 4.8 6.4 0.00 0.00 0.74 87 1016.9
20260901194147 27 347 4.8 6.4 0.00 0.00 0.74 87 1016.9
20260901193646 27 360 4.8 4.8 0.00 0.00 0.74 86 1016.6
20260901193148 27 292 3.2 6.4 0.00 0.00 0.74 83 1016.6
20260901192646 27 227 6.4 11.3 0.00 0.00 0.74 84 1016.3
20260901192147 27 229 6.4 11.3 0.00 0.00 0.74 87 1016.6
20260901191647 27 195 9.7 12.9 0.00 0.00 0.74 88 1016.3
20260901191146 27 205 6.4 9.7 0.00 0.00 0.74 90 1016.3
20260901190647 26 204 8.0 9.7 0.00 0.00 0.74 90 1016.3
20260901190147 26 230 9.7 12.9 0.00 0.00 0.74 90 1016.3
20260901185646 26 215 11.3 16.1 0.05 0.00 0.74 92 1016.6
20260901185147 26 185 8.0 22.5 0.53 0.00 0.71 92 1015.9
20260901184647 26 210 6.4 24.1 1.19 0.00 0.71 92 1016.3
20260901184147 26 176 9.7 16.1 3.35 0.00 0.64 92 1016.6
20260901183646 27 174 0.0 30.6 2.82 0.00 0.51 89 1016.9
20260901183147 30 163 9.7 16.1 0.05 0.00 0.05 79 1016.3
20260901182647 31 224 4.8 17.7 0.00 0.00 0.05 75 1016.3
20260901182146 31 150 11.3 19.3 0.00 0.00 0.05 72 1015.9
20260901181647 31 158 11.3 17.7 0.00 0.00 0.05 73 1015.9
20260901181147 31 170 11.3 14.5 0.00 0.00 0.05 72 1016.3
20260901180646 32 150 4.8 8.0 0.00 0.00 0.05 67 1016.3
20260901180146 31 169 6.4 12.9 0.00 0.00 0.05 69 1016.3
20260901175646 31 129 11.3 11.3 0.00 0.00 0.05 69 1016.6
20260901175146 32 171 3.2 11.3 0.00 0.00 0.05 68 1016.3
20260901174647 32 282 1.6 11.3 0.00 0.00 0.05 69 1016.3
20260901174147 31 43 4.8 11.3 0.00 0.00 0.05 74 1016.3
20260901173647 30 214 0.0 6.4 0.00 0.00 0.05 77 1016.3
20260901173147 30 180 3.2 9.7 0.00 0.00 0.05 78 1016.3
20260901172647 30 219 3.2 8.0 0.00 0.00 0.05 78 1016.3
20260901172146 30 223 1.6 4.8 0.00 0.00 0.05 78 1016.6
20260901171647 29 229 3.2 4.8 0.00 0.00 0.05 80 1016.6
20260901171147 28 304 3.2 6.4 0.05 0.00 0.05 82 1016.6
20260901170647 28 235 4.8 6.4 0.05 0.00 0.05 83 1016.6
20260901170146 28 221 4.8 9.7 0.05 0.00 0.05 84 1017.3
20260901165646 28 216 14.5 17.7 0.23 0.00 0.05 83 1016.9
20260901165146 30 204 14.5 22.5 0.18 0.00 0.03 77 1016.9
20260901164646 31 164 4.8 16.1 0.00 0.00 0.00 67 1016.9
20260901164146 31 5 1.6 11.3 0.00 0.00 0.00 68 1016.9
20260901163647 31 142 4.8 9.7 0.00 0.00 0.00 68 1016.9
20260901163146 32 71 8.0 11.3 0.00 0.00 0.00 68 1016.9
20260901162646 32 39 14.5 16.1 0.00 0.00 0.00 67 1016.9
20260901162146 31 51 8.0 11.3 0.00 0.00 0.00 69 1016.9
20260901161649 31 82 4.8 12.9 0.00 0.00 0.00 69 1016.9
20260901161146 31 235 0.0 14.5 0.00 0.00 0.00 69 1016.6
20260901160647 31 82 4.8 6.4 0.00 0.00 0.00 69 1016.9
20260901155647 32 37 1.6 8.0 0.00 0.00 0.00 68 1016.6
20260901155146 31 84 6.4 17.7 0.00 0.00 0.00 69 1016.6
20260901154646 31 149 12.9 14.5 0.00 0.00 0.00 69 1016.6
20260901154146 32 144 9.7 9.7 0.00 0.00 0.00 69 1016.6
20260901153647 31 129 4.8 9.7 0.00 0.00 0.00 71 1016.9
20260901153148 32 80 11.3 16.1 0.00 0.00 0.00 69 1016.6
20260901152647 32 69 3.2 12.9 0.00 0.00 0.00 70 1016.6
20260901152147 32 155 6.4 19.3 0.00 0.00 0.00 71 1016.6
20260901151646 32 69 4.8 14.5 0.00 0.00 0.00 71 1016.6
20260901151147 31 156 4.8 16.1 0.00 0.00 0.00 71 1016.9
20260901150647 32 64 6.4 11.3 0.00 0.00 0.00 71 1016.9
20260901150147 32 150 11.3 14.5 0.00 0.00 0.00 71 1016.6
20260901145646 32 21 8.0 11.3 0.00 0.00 0.00 72 1016.6
20260901145147 31 173 3.2 17.7 0.00 0.00 0.00 72 1016.6
20260901144647 31 57 4.8 16.1 0.00 0.00 0.00 73 1016.6
20260901144146 31 130 3.2 12.9 0.00 0.00 0.00 74 1016.3
20260901143647 31 72 8.0 14.5 0.00 0.00 0.00 75 1016.6
20260901143146 31 86 4.8 14.5 0.00 0.00 0.00 77 1016.6
20260901142647 31 14 3.2 11.3 0.00 0.00 0.00 78 1016.6
20260901142146 31 77 11.3 24.1 0.00 0.00 0.00 78 1016.6
20260901141647 30 82 4.8 11.3 0.00 0.00 0.00 79 1016.6
20260901141147 30 202 4.8 11.3 0.00 0.00 0.00 79 1016.6
20260901140647 30 57 4.8 9.7 0.00 0.00 0.00 79 1016.6
20260901140146 30 77 8.0 14.5 0.00 0.00 0.00 79 1016.6
20260901135647 30 172 4.8 9.7 0.00 0.00 0.00 79 1016.6
20260901135147 30 139 4.8 11.3 0.00 0.00 0.00 81 1016.6
20260901134646 30 67 17.7 19.3 0.00 0.00 0.00 81 1016.6
20260901134147 30 1 1.6 11.3 0.00 0.00 0.00 81 1016.6
20260901133647 30 32 1.6 8.0 0.00 0.00 0.00 82 1016.6
20260901133147 30 160 3.2 12.9 0.00 0.00 0.00 82 1016.6
20260901132647 30 69 4.8 9.7 0.00 0.00 0.00 83 1016.6
20260901132147 30 83 8.0 11.3 0.00 0.00 0.00 82 1016.6
20260901131647 30 2 1.6 8.0 0.00 0.00 0.00 83 1016.6
20260901131146 29 220 1.6 6.4 0.00 0.00 0.00 83 1016.6
20260901130648 30 73 4.8 8.0 0.00 0.00 0.00 83 1016.6
20260901130146 29 43 3.2 8.0 0.00 0.00 0.00 83 1016.6
20260901125647 29 85 3.2 8.0 0.00 0.00 0.00 83 1016.3
20260901125146 29 180 3.2 9.7 0.00 0.00 0.00 83 1016.3
20260901124647 29 91 4.8 11.3 0.00 0.00 0.00 83 1016.3
20260901124146 29 153 4.8 8.0 0.00 0.00 0.00 83 1016.3
20260901123647 28 217 1.6 8.0 0.00 0.00 0.00 84 1016.3
20260901123147 28 66 4.8 8.0 0.00 0.00 0.00 85 1015.9
20260901122646 28 28 6.4 9.7 0.00 0.00 0.00 85 1016.3
20260901122146 28 103 0.0 8.0 0.00 0.00 0.00 86 1015.9
20260901121646 28 22 4.8 9.7 0.00 0.00 0.00 86 1015.9
20260901121148 28 72 3.2 6.4 0.00 0.00 0.00 87 1015.9
20260901120647 27 95 3.2 8.0 0.00 0.00 0.00 87 1015.9
20260901120146 27 42 4.8 6.4 0.00 0.00 0.00 88 1015.6
20260901115646 27 76 4.8 8.0 0.00 0.00 0.00 89 1015.9
20260901115146 27 48 4.8 6.4 0.00 0.00 0.00 89 1015.6
20260901114646 27 36 4.8 6.4 0.00 0.00 0.00 90 1015.6
20260901114148 27 216 1.6 8.0 0.00 0.00 0.00 89 1015.2
20260901113646 27 34 3.2 8.0 0.00 0.00 0.00 89 1015.6
20260901113147 27 100 4.8 4.8 0.00 0.00 0.00 90 1015.2
20260901112646 27 62 0.0 4.8 0.00 0.00 0.00 90 1015.2
20260901112147 27 191 4.8 4.8 0.00 0.00 0.00 89 1015.2
20260901111648 27 74 0.0 4.8 0.00 0.00 0.00 90 1015.2
20260901111146 27 51 0.0 3.2 0.00 0.00 0.00 90 1015.2
20260901110646 27 108 0.0 4.8 0.00 0.00 0.00 90 1015.2
20260901110146 27 124 1.6 8.0 0.00 0.00 0.00 90 1014.9
20260901105646 27 78 4.8 4.8 0.00 0.00 0.00 90 1014.9
20260901105146 27 72 1.6 4.8 0.00 0.00 0.00 90 1014.9
20260901104646 27 116 3.2 4.8 0.00 0.00 0.00 90 1014.9
20260901104147 27 112 0.0 4.8 0.00 0.00 0.00 90 1014.9
20260901103646 27 104 3.2 6.4 0.00 0.00 0.00 90 1014.9
20260901103147 27 49 1.6 4.8 0.00 0.00 0.00 90 1014.9
20260901102647 27 104 3.2 4.8 0.00 0.00 0.00 91 1014.9
20260901102148 27 176 3.2 4.8 0.00 0.00 0.00 90 1014.9
20260901101646 27 155 0.0 3.2 0.00 0.00 0.00 90 1014.6
20260901101147 27 61 3.2 4.8 0.00 0.00 0.00 90 1014.9
20260901100646 27 64 1.6 4.8 0.00 0.00 0.00 90 1014.6
20260901100146 27 142 0.0 4.8 0.00 0.00 0.00 89 1014.9
20260901095646 27 97 1.6 8.0 0.00 0.00 0.00 89 1014.6
20260901095149 27 77 4.8 6.4 0.00 0.00 0.00 89 1014.9
20260901094646 27 102 3.2 8.0 0.00 0.00 0.00 89 1014.6
20260901094146 27 294 3.2 8.0 0.00 0.00 0.00 89 1014.6
20260901093648 27 147 6.4 6.4 0.00 0.00 0.00 89 1014.6
20260901093147 27 158 3.2 4.8 0.00 0.00 0.00 89 1014.9
20260901092647 27 168 3.2 3.2 0.00 0.00 0.00 89 1014.6
20260901092146 27 60 3.2 4.8 0.00 0.00 0.00 89 1014.9
20260901091646 27 59 1.6 6.4 0.00 0.00 0.00 89 1014.9
20260901091146 27 146 0.0 4.8 0.00 0.00 0.00 89 1014.9
20260901090647 27 210 1.6 6.4 0.00 0.00 0.00 89 1014.9
20260901090147 27 81 1.6 8.0 0.00 0.00 0.00 89 1014.9
20260901085646 27 31 3.2 4.8 0.00 0.00 0.00 89 1014.9
20260901085146 27 144 1.6 8.0 0.00 0.00 0.00 89 1014.9
20260901084646 27 93 1.6 8.0 0.00 0.00 0.00 89 1014.9
20260901084146 27 192 0.0 8.0 0.00 0.00 0.00 89 1014.6
20260901083647 27 170 3.2 8.0 0.00 0.00 0.00 89 1014.6
20260901083146 27 145 11.3 11.3 0.00 0.00 0.00 89 1014.9
20260901082649 27 74 3.2 6.4 0.00 0.00 0.00 89 1014.9
20260901082147 27 97 4.8 9.7 0.00 0.00 0.00 89 1014.6
20260901081647 27 64 1.6 4.8 0.00 0.00 0.00 89 1014.6
20260901081146 27 97 3.2 6.4 0.00 0.00 0.00 89 1014.9
20260901080647 27 125 4.8 6.4 0.00 0.00 0.00 89 1014.9
20260901080147 27 217 0.0 4.8 0.00 0.00 0.00 89 1014.9
20260901075647 27 63 8.0 8.0 0.00 0.00 0.00 89 1014.6
20260901075147 27 6 0.0 6.4 0.00 0.00 0.00 88 1014.9
20260901074646 27 107 1.6 4.8 0.00 0.00 0.00 89 1014.9
20260901074146 27 164 3.2 6.4 0.00 0.00 0.00 89 1014.9
20260901073646 27 144 3.2 8.0 0.00 0.00 0.00 89 1014.9
20260901073147 27 138 4.8 11.3 0.00 0.00 0.00 89 1014.9
20260901072646 27 145 6.4 8.0 0.00 0.00 0.00 90 1015.2
20260901072147 27 150 4.8 8.0 0.00 0.00 0.00 90 1014.9
20260901071647 27 149 1.6 8.0 0.00 0.00 0.00 90 1014.9
20260901071147 27 173 4.8 8.0 0.00 0.00 0.00 90 1015.2
20260901070649 27 119 1.6 6.4 0.00 0.00 0.00 90 1015.2
20260901070146 27 92 3.2 4.8 0.00 0.00 0.00 90 1015.2
20260901065646 27 154 1.6 4.8 0.00 0.00 0.00 90 1015.2
20260901065148 27 160 3.2 6.4 0.00 0.00 0.00 91 1015.2
20260901064646 27 127 6.4 6.4 0.00 0.00 0.00 91 1015.2
20260901064146 27 166 3.2 9.7 0.00 0.00 0.00 91 1015.2
20260901063647 27 160 6.4 8.0 0.00 0.00 0.00 91 1015.6
20260901063146 27 156 4.8 4.8 0.00 0.00 0.00 90 1015.6
20260901062646 27 143 4.8 6.4 0.00 0.00 0.00 90 1015.2
20260901062146 27 94 1.6 6.4 0.00 0.00 0.00 90 1015.2
20260901061647 27 155 3.2 6.4 0.00 0.00 0.00 90 1015.2
20260901061146 27 127 1.6 4.8 0.00 0.00 0.00 90 1015.2
20260901060646 27 122 1.6 3.2 0.00 0.00 0.00 90 1015.2
20260901060147 27 113 0.0 3.2 0.00 0.00 0.00 90 1015.2
20260901055647 27 152 3.2 6.4 0.00 0.00 0.00 90 1015.2
20260901055147 27 167 3.2 6.4 0.00 0.00 0.00 89 1015.6
20260901054646 27 155 1.6 6.4 0.00 0.00 0.00 90 1015.2
20260901054147 27 146 1.6 4.8 0.00 0.00 0.00 89 1015.2
20260901053646 27 208 0.0 3.2 0.00 0.00 0.00 88 1015.2
20260901053147 27 104 3.2 4.8 0.00 0.00 0.00 88 1015.6
20260901052646 27 34 3.2 8.0 0.00 0.00 0.00 88 1015.2
20260901052146 27 60 4.8 8.0 0.00 0.00 0.00 89 1015.2
20260901051648 27 140 3.2 6.4 0.00 0.00 0.00 89 1015.2
20260901051146 27 67 3.2 8.0 0.00 0.00 0.00 89 1015.6
20260901050647 27 57 4.8 6.4 0.00 0.00 0.00 89 1015.6
20260901050146 27 76 6.4 6.4 0.00 0.00 0.00 89 1015.6
20260901045646 27 73 4.8 6.4 0.00 0.00 1.91 88 1015.6
20260901045146 27 20 4.8 6.4 0.00 0.00 1.91 88 1015.9
20260901044646 27 92 3.2 6.4 0.00 0.00 1.91 88 1015.9
20260901044146 27 158 3.2 8.0 0.00 0.00 1.91 88 1015.9
20260901043647 27 69 3.2 8.0 0.00 0.00 1.91 88 1015.6
20260901043146 27 66 1.6 4.8 0.00 0.00 1.91 88 1015.6
20260901042646 27 233 0.0 4.8 0.00 0.00 1.91 88 1015.6
20260901042146 27 92 4.8 8.0 0.00 0.00 1.91 87 1015.9
20260901041646 27 74 4.8 9.7 0.00 0.00 1.91 87 1015.6
20260901041147 27 81 4.8 8.0 0.00 0.00 1.91 87 1015.6
20260901040647 27 98 3.2 6.4 0.00 0.00 1.91 87 1015.6
20260901040147 27 95 3.2 8.0 0.00 0.00 1.91 87 1015.6
20260901035646 28 89 4.8 4.8 0.00 0.00 1.91 87 1015.6
20260901035146 28 77 1.6 8.0 0.00 0.00 1.91 87 1015.6
20260901034646 28 82 4.8 9.7 0.00 0.00 1.91 87 1015.6
20260901034147 28 77 6.4 9.7 0.00 0.00 1.91 87 1015.6
20260901033647 28 100 3.2 9.7 0.00 0.00 1.91 86 1015.6
20260901033146 27 78 6.4 9.7 0.00 0.00 1.91 87 1015.6
20260901032647 27 93 4.8 8.0 0.00 0.00 1.91 87 1015.6
20260901032146 27 63 6.4 8.0 0.00 0.00 1.91 86 1015.2
20260901031647 28 37 4.8 4.8 0.00 0.00 1.91 86 1015.2
20260901031146 28 138 9.7 9.7 0.00 0.00 1.91 86 1015.2
20260901030647 28 72 4.8 4.8 0.00 0.00 1.91 85 1015.2
20260901030146 28 80 1.6 8.0 0.00 0.00 1.91 85 1015.2
20260901025646 28 78 8.0 11.3 0.00 0.00 1.91 85 1015.2
20260901025147 28 83 4.8 11.3 0.00 0.00 1.91 84 1015.2
20260901024647 28 76 6.4 9.7 0.00 0.00 1.91 84 1015.2
20260901024147 28 93 4.8 9.7 0.00 0.00 1.91 84 1015.2
20260901023648 28 30 6.4 8.0 0.00 0.00 1.91 83 1015.2
20260901023147 28 43 4.8 11.3 0.00 0.00 1.91 83 1014.9
20260901022647 28 84 4.8 8.0 0.00 0.00 1.91 83 1014.9
20260901022148 28 68 4.8 11.3 0.00 0.00 1.91 83 1014.9